Tracking 22455 objects as of 8-Mar-2021
HD Live streaming from Space Station
objects crossing your sky now

THORAD AGENA D DEB

Track THORAD AGENA D DEB now!
10-day predictions


NORAD ID: 4178
Int'l Code: 1969-082AW
Perigee: 720.6 km
Apogee: 828.1 km
Inclination: 69.8 °
Period: 100.2 minutes
Semi major axis: 7145 km
RCS: 0.1101 m2 (medium)
Launch date: September 30, 1969
Source: United States (US)
Launch site: AIR FORCE WESTERN TEST RANGE (AFWTR)

Note: This is SATELLITE DEBRIS
aabbcc
Your satellite tracking list
Your tracking list is empty




NASA's NSSDC Master Catalog

Two Line Element Set (TLE):
1 04178U 69082AW  21067.58419803  .00000106  00000-0  54170-4 0  9997
2 04178  69.8471 176.4678 0075284  53.7094 307.0954 14.37365106661603
Source of the keplerian elements: AFSPC